Location: Unspecified
(64.9000°N, 0.0000°E)
Time: 02:09:43
(UTC+00:00)

Transit 2A Rocket - Pass Details

Date: 24 June 2019
Orbit: 588 x 915 km, 66.7° (Epoch: 22 July)

Event Time Altitude Azimuth Distance (km) Brightness Sun altitude
Rises 09:08:55 0° 174° (S) 3,538 8.9 40.0°
Reaches altitude 10° 09:12:06 10° 158° (SSE) 2,581 8.6 40.3°
Maximum altitude 09:16:18 20° 114° (ESE) 1,920 8.6 40.6°
Drops below altitude 10° 09:20:23 10° 69° (ENE) 2,490 8.1 41.0°
Sets 09:23:23 0° 53° (NE) 3,375 8.5 41.2°
